Starlink 32454

operational
NORAD ID: 62142 Int'l Des: 2024-224 Owner: SPXS Country: US Constellation: starlink
LEOCIRCULAR

About Starlink 32454

Description loading...

Live Position

Loading 3D Globe...

Upcoming Passes

Altitude History

Altitude vs Time

uPlot chart will show altitude changes over time

Two-Line Element Set

1 62142U 24224D 25348.82259276 .00027917 00000-0 10198-2 0 9999
2 62142 43.0002 284.9197 0000956 255.2134 104.8612 15.27592521 59418
Epoch: Dec 14, 2025 • Age: 20 hours

Current Status

Altitude 490.5 km
Velocity 7.62 km/s
Sub-Earth Point -29.97°S, 81.41°W
Launch Date Nov 30, 2024
Age 1 years
Type internet

Technical Details

Classification Payload
Mass 730.00 kg
Dry Mass 700.00 kg
Total Mass 730.00 kg
Length 0.30 m
Diameter 4.10 m
Span 29.00 m
Shape Box + pan
Manufacturer SPXS
Bus Type Starlink V2M
Phase Status In Orbit
Owner/State SPXS/US

Large Constellations

Loading constellations...